Regional Weather Roundup
Issued by NWS

Home | Current Version | Previous Version | Graphics & Text | Print | Product List | Glossary On
Versions: 1 2 3 4 5 6 7 8 9 10 11 12 13 14 15 16 17 18 19 20 21 22 23 24 25 26 27 28 29 30 31 32 33 34 35 36 37 38 39 40 41 42 43 44 45 46 47 48 49 50
000
ASUS43 KOAX 031502
RWRNE

WEATHER ROUNDUP FOR NEBRASKA
NATIONAL WEATHER SERVICE OMAHA NE
1000 AM CDT TUE MAY 03 2016

NOTES: SATELLITE DATA IS BEING USED TO AUGMENT CLOUD COVER ABOVE
       12000 FEET.
       "FAIR" INDICATES FEW OR NO CLOUDS BELOW 12,000 FEET WITH NO
       SIGNIFICANT WEATHER AND/OR OBSTRUCTIONS TO VISIBILITY.

  * THESE STATIONS DO NOT REPORT WEATHER SUCH AS RAIN...SNOW OR FOG.

NEZ001>004-019>022-054>056-031600-
NEBRASKA PANHANDLE

CITY           SKY/WX    TMP DP  RH WIND       PRES   REMARKS
SCOTTSBLUFF    SUNNY     52  40  63 W7        30.16R
ALLIANCE       SUNNY     51  41  68 N7        30.13R
CHADRON        SUNNY     55  42  61 W8        30.13S
KIMBALL        SUNNY     51  37  58 NW12      30.17S
SIDNEY           N/A     50  39  66 MISG      30.16R
$$

NEZ057>060-069>072-079>082-031600-
SOUTHWEST NEBRASKA

CITY           SKY/WX    TMP DP  RH WIND       PRES   REMARKS
NORTH PLATTE   PTSUNNY   47  44  90 NW10      30.12R
IMPERIAL       MOSUNNY   51  43  74 N12       30.12R
LEXINGTON      SUNNY     54  43  66 NE6       30.08S HAZE
MCCOOK         SUNNY     52  45  77 N7        30.10R
$$

NEZ005>010-023>029-035>040-094-031600-
NORTH CENTRAL NEBRASKA

CITY           SKY/WX    TMP DP  RH WIND       PRES   REMARKS
VALENTINE      SUNNY     51  46  83 SW6       30.09F
AINSWORTH      SUNNY     53  44  72 W8        30.10S
BROKEN BOW     SUNNY     55  44  66 N9        30.08R
ORD            SUNNY     53  45  74 VRB3      30.07R
$$

NEZ041-046>049-061>064-073>077-083>087-031600-
SOUTH CENTRAL NEBRASKA

CITY           SKY/WX    TMP DP  RH WIND       PRES   REMARKS
GRAND ISLAND   SUNNY     54  41  61 CALM      30.08S
AURORA         SUNNY     57  42  56 W3        30.08S
HASTINGS       SUNNY     57  42  57 VRB3      30.07S
KEARNEY *      SUNNY     54  43  66 NE5       30.08S
YORK           SUNNY     59  39  47 S3        30.07F
$$

NEZ011>018-030>034-042>045-031600-
NORTHEAST NEBRASKA

CITY           SKY/WX    TMP DP  RH WIND       PRES   REMARKS
NORFOLK        SUNNY     58  43  57 NW7       30.05S
ALBION         SUNNY     58  43  56 W3        30.07S
BLAIR          SUNNY     58  46  66 SW6       30.06S
COLUMBUS *     SUNNY     57  39  51 SW6       30.08S
FREMONT        SUNNY     58  46  64 W5        30.07S
TEKAMAH        SUNNY     59  45  59 W7        30.05F
$$

NEZ050>053-065>068-078-088>093-031600-
SOUTHEAST NEBRASKA

CITY           SKY/WX    TMP DP  RH WIND       PRES   REMARKS
LINCOLN        SUNNY     58  46  64 CALM      30.08F
OMAHA EPPLEY   SUNNY     59  46  62 CALM      30.06F
BEATRICE       SUNNY     57  46  67 CALM      30.08S
FALLS CITY     SUNNY     61  48  62 SW7       30.07F
$$

NEZ044-045-051>053-067-031600-
OMAHA AREA

CITY           SKY/WX    TMP DP  RH WIND       PRES   REMARKS
OMAHA EPPLEY   SUNNY     59  46  62 CALM      30.06F
BLAIR          SUNNY     58  46  66 SW6       30.06S
FREMONT        SUNNY     58  46  64 W5        30.07S
$$



USA.gov is the U.S. government's official web portal to all federal, state and local government web resources and services.